Flag for Denmark Weather past 2 weeks in Roskilde, Denmark

Now
64 °F

Mild.


Feels Like: 64 °F
Forecast: 57 / 67 °F
Wind: 3 mph from East

Location: Koebenhavn / Roskilde

Current Time: Jul 5, 2015 at 5:49:58 AM

Latest Report: Jul 5, 2015 at 5:20 AM


Visibility: N/A

Pressure: 30.04 "Hg

Humidity: 83%

Dew point: 59 °F

Location of RoskildeLocation

Historic Weather in Roskilde — Graph

°F

Roskilde temperature yesterday

Maximum temperature yesterday: 81 °F (at 4:50 PM)
Minimum temperature yesterday: 57 °F (at 3:50 AM)
Average temperature yesterday: 70 °F

Past Weeks' High & Low Weather Summary

 TemperatureHumidityPressure
High81 °F (Jul 4, 4:50 PM)100% (Jun 20, 4:50 AM)30.36 "Hg (Jun 20, 4:50 AM)
Low46 °F (Jun 23, 5:20 AM)38% (Jul 2, 3:50 PM)29.62 "Hg (Jun 22, 11:20 PM)
Average60 °F79%30.04 "Hg
* Reported Jun 20 4:20 AM — Jul 5 4:20 AM, Roskilde, Weather by CustomWeather, © 2015

Note: Actual official high and low records may vary slightly from our data, if they occured in-between our weather recording intervals... More about our weather records

Advertising

Roskilde weather history for previous 24 hours

 ConditionsComfort  
Time TempWeatherWind HumidityBarometerVisibility
4:20 AM
Sun, Jul 5
64 °FMild.1 mph83%30.07 "HgN/A
3:50 AM68 °FMild.7 mph78%30.07 "HgN/A
3:20 AM66 °FMild.3 mph83%30.07 "HgN/A
2:50 AM64 °FMild.6 mph88%30.07 "HgN/A
2:20 AM64 °FMild.7 mph88%30.07 "HgN/A
1:50 AM64 °FPassing clouds.6 mph88%30.07 "HgN/A
1:20 AM66 °FPartly cloudy.2 mph83%30.09 "HgN/A
12:50 AM68 °FPassing clouds.3 mph78%30.09 "HgN/A
12:20 AM70 °FPartly cloudy.5 mph73%30.07 "HgN/A
11:50 PM
Sat, Jul 4
72 °FPassing clouds.5 mph65%30.07 "HgN/A
11:20 PM68 °FPassing clouds.7 mph73%30.07 "HgN/A
10:50 PM68 °FBroken clouds.No wind73%30.09 "HgN/A
10:20 PM70 °FPartly sunny.No wind73%30.09 "HgN/A
9:50 PM70 °FScattered clouds.No wind73%30.09 "HgN/A
9:20 PM72 °FMild.No wind73%30.09 "HgN/A
8:50 PM73 °FMild.2 mph74%30.09 "HgN/A
8:20 PM75 °FPassing clouds.1 mph69%30.09 "HgN/A
7:50 PM75 °FMild.1 mph65%30.09 "HgN/A
7:20 PM75 °FMild.3 mph65%30.09 "HgN/A
6:50 PM77 °FWarm.3 mph61%30.09 "HgN/A
6:20 PM79 °FWarm.6 mph58%30.09 "HgN/A
5:50 PM81 °FWarm.6 mph48%30.12 "HgN/A
5:20 PM81 °FWarm.5 mph51%30.12 "HgN/A
4:50 PM81 °FWarm.3 mph54%30.12 "HgN/A
4:20 PM77 °FPassing clouds.3 mph57%30.15 "HgN/A
3:50 PM75 °FPassing clouds.6 mph65%30.15 "HgN/A
3:20 PM75 °FMild.6 mph61%30.15 "HgN/A
2:50 PM75 °FPassing clouds.7 mph57%30.15 "HgN/A
2:20 PM77 °FScattered clouds.7 mph54%30.15 "HgN/A
1:50 PM79 °FPassing clouds.7 mph54%30.15 "HgN/A
1:20 PM79 °FSunny.6 mph51%30.15 "Hg10 mi
12:51 PM77 °FPassing clouds.6 mph54%30.15 "HgN/A
12:20 PM77 °FPassing clouds.7 mph57%30.15 "HgN/A
11:50 AM75 °FPassing clouds.8 mph57%30.15 "HgN/A
11:20 AM75 °FPassing clouds.6 mph61%30.15 "HgN/A
10:50 AM75 °FPassing clouds.6 mph61%30.18 "HgN/A
10:20 AM75 °FMild.5 mph65%30.18 "Hg4 mi
9:50 AM73 °FMild.3 mph65%30.18 "Hg2 mi
9:20 AM73 °FMild.3 mph65%30.18 "HgN/A
8:50 AM72 °FMild.3 mph69%30.18 "HgN/A
8:20 AM70 °FMild.2 mph78%30.18 "HgN/A
7:50 AM68 °FMild.2 mph78%30.18 "HgN/A
7:20 AM66 °FMild.No wind83%30.18 "HgN/A
6:50 AM64 °FMild.No wind88%30.18 "HgN/A
6:20 AM63 °FMild.No wind88%30.18 "HgN/A
5:50 AM59 °FCool.3 mph94%30.18 "HgN/A
5:20 AM57 °FCool.3 mph100%30.21 "HgN/A
Weather by CustomWeather, © 2015

See weather overviewHow to use our weather pages